Hourly Data Report for May 27, 2004

SHERBROOKE A
QUEBEC

45°26'00.000" N
71°41'00.000" W
241.40 m
7028124
71610
YSC

Download Data

Hourly Data (May 2004)
Hourly Data Report for May 27, 2004
TIME
LST
Temp Definition
°C
Dew Point Definition
°C
Rel Hum Definition
%
Precip. Amount Definition
mm

Wind Dir Definition
10's deg

Wind Spd Definition
km/h
Visibility Definition
km
Stn Press Definition
kPa
Hmdx Definition


Wind Chill Definition


Weather Definition


00:00 11.1 10.2 94     0 8.0 97.67     Rain
01:00 10.7 9.8 94   23 9 6.4 97.78     Rain
02:00 10.3 9.4 94   19 9 15.0 97.76     Rain
03:00 9.7 8.9 95   19 4 15.0 97.78      
04:00 8.0 7.2 95     0 0.6 97.84      
05:00 7.2 6.4 95     0 0.3 97.88      
06:00 11.2 9.8 91   7 4 15.0 97.87      
07:00 11.8 9.7 87   22 7 24.1 97.89     Mainly Clear
08:00 14.2 11.0 81   26 7 24.1 97.91     Mainly Clear
09:00 15.2 11.0 76   29 9 24.1 97.90     Mostly Cloudy
10:00 15.8 10.1 69   26 9 24.1 97.91     Mostly Cloudy
11:00 17.5 10.4 63   27 6 24.1 97.87     Mostly Cloudy
12:00 18.8 9.9 56     0 24.1 97.80     Mainly Clear
13:00 19.7 10.4 55   11 6 24.1 97.73     Mainly Clear
14:00 20.4 10.6 53   27 9 24.1 97.68     Mainly Clear
15:00 20.7 9.4 48   23 6 24.1 97.64     Mostly Cloudy
16:00 20.2 8.9 48   20 7 24.1 97.62     Mostly Cloudy
17:00 20.6 8.9 47   22 9 15.0 97.59      
18:00 19.4 8.9 51   18 4 15.0 97.55      
19:00 15.4 11.3 77   12 4 15.0 97.53      
20:00 13.0 9.8 81     0 15.0 97.56      
21:00 13.0 10.3 84   12 7 15.0 97.54      
22:00 13.0 10.0 82   10 4 15.0 97.53      
23:00 12.7 10.1 84   6 4 15.0 97.47      

Notes on Data Quality.

Legend

  • E = Estimated
  • M = Missing
  • NA = Not Available*
  • [empty] = Indicates an unobserved value
Date modified: